sat.trackr.live / text

‹ back to catalog

STARLINK-5609

NORAD 55348 · 2023-013T

PAYLOAD ACTIVE UNKNOWN

§ Identity

Operator
Country
US
Launch date
2023-01-26
Launch site
AFETR
Launch vehicle
Mass (kg)
RCS (m²)

Purposes: comms

External: N2YO · Heavens-Above · Gunter

§ Orbital elements

Epoch: 2026-09-20T07:58:30.345024Z

Period
94.27 min
Inclination
43.0029°
Eccentricity
0.0001564
Mean motion
15.27575387 rev/d
Perigee alt
482.0 km
Apogee alt
484.1 km
Semi-major
6,861.2 km
B*
2.1329e-5
RAAN
283.9839°
Arg perigee
270.9063°
Mean anomaly
89.1609°
Rev number
20,144

§ Raw data

STARLINK-56091 55348U 23013T   26263.33229566  .00000325  00000+0  21329-4 0  99992 55348  43.0029 283.9839 0001564 270.9063  89.1609 15.27575387201444

JSON: /api/v1/satellites/55348 · /tle

For live sub-satellite position, see the globe view (requires WebGL).

§ Visibility from observer

Set your observer location to see the next 7 days of passes ≥ 10°. The values pass through the URL so the page stays shareable.

No JS? Fill the form by hand. The geolocation button needs JavaScript.